Location: Go�ngahuizen
(53.0821°N, 5.8849°E)
Time: 18:23:01
(UTC+00:00)

Cosmos 1743 Rocket - Pass Details

Date: 09 April 2020
Orbit: 604 x 633 km, 82.6° (Epoch: 24 May)

Event Time Altitude Azimuth Distance (km) Brightness Sun altitude
Rises 21:27:06 0° 351° (N) 2,941 8.1 -22.9°
Reaches altitude 10° 21:29:23 10° 355° (N) 2,030 7.0 -23.1°
Enters shadow 21:33:47 59° 72° (ENE) 739 3.7 -23.5°
